Theta_e
312 313 316 318 321 321 323 319 314 318 318 317 320 317 314 320 323 321 323 322 320 322 325 338 341 334 336 343 347 350 350 355 356 348 346 345 345 349 347 347 351 348 348 347 345 347 343 338 336 335 332 327 327 329 328 325 328 333 333 335 335 334 336 337 337 338 337 337 336 335 336 334 334 335 336 337 336 336 336 336 336 336 337 338 339 339 339 340 340 340 340 340 340 340 339 339 339
312 316 321 322 321 321 325 321 318 322 319 315 316 319 318 320 323 323 325 322 321 329 336 344 351 349 345 349 351 352 355 351 349 349 347 345 347 348 346 349 349 348 348 346 346 346 343 338 336 336 331 326 327 328 329 327 329 334 334 336 336 335 336 336 336 335 337 338 338 337 335 335 336 336 336 337 336 336 336 336 335 335 337 337 338 339 339 339 340 340 340 340 340 339 338 338 338
312 317 322 323 320 322 328 322 320 321 316 312 314 320 320 320 324 323 324 320 320 326 329 342 354 351 349 358 356 353 355 349 347 349 347 346 348 348 348 349 347 347 346 345 346 345 342 338 336 336 331 326 326 328 331 330 331 334 335 336 336 336 335 334 336 336 338 339 338 337 338 338 337 338 337 337 336 335 336 335 335 335 336 337 338 339 339 339 339 340 339 340 339 338 337 337 337
313 316 320 323 321 324 333 328 328 324 316 316 315 320 323 325 326 323 320 316 318 316 322 347 356 347 352 360 353 353 355 349 347 347 347 347 347 348 349 348 347 347 345 346 346 344 342 339 337 336 332 326 327 330 333 333 332 333 334 335 336 336 336 335 337 338 339 339 338 338 338 338 338 338 337 337 336 336 336 335 335 335 337 338 338 338 338 338 339 338 338 339 337 336 336 335 335
312 316 319 323 323 325 329 326 328 322 315 319 318 321 326 326 324 321 317 314 315 312 326 356 356 347 351 353 349 354 353 349 348 346 348 347 347 348 348 347 346 345 345 346 345 344 343 340 337 337 333 327 328 330 335 336 332 332 335 335 335 336 337 337 337 339 339 339 339 338 337 337 337 338 338 338 337 337 337 336 336 335 336 338 338 338 338 338 338 337 338 337 336 335 332 332 332
312 317 321 321 320 320 323 322 325 322 318 320 320 324 325 322 320 319 318 317 318 319 334 355 353 353 355 350 348 351 348 349 350 346 348 348 347 347 347 346 344 345 345 346 346 344 343 341 337 337 333 329 327 328 335 336 331 334 336 336 337 338 339 338 337 339 339 339 339 338 337 337 338 338 338 337 336 336 336 336 335 333 335 336 337 337 337 337 337 337 337 335 335 332 329 330 331
314 320 322 321 320 320 326 330 328 328 322 318 322 324 320 319 318 319 319 317 322 331 346 354 350 356 357 349 349 349 346 348 348 347 347 347 346 347 348 346 346 347 346 347 346 344 344 341 338 337 335 330 326 330 337 336 333 335 336 337 338 338 339 338 336 338 339 339 339 338 337 337 338 338 337 337 335 335 334 333 332 332 333 335 336 336 337 337 336 336 335 334 333 330 329 331 332
316 321 322 325 325 321 326 329 327 328 324 318 320 321 322 321 319 320 320 317 316 327 347 353 350 358 356 349 353 349 345 348 347 347 347 347 347 347 348 347 348 347 347 347 345 345 344 340 338 338 336 332 330 334 338 337 335 335 336 337 339 338 339 338 336 338 339 339 339 338 337 337 338 337 336 336 334 333 331 330 331 330 329 331 333 335 335 335 335 334 333 332 330 328 330 332 332
316 317 319 323 323 322 325 323 321 322 321 319 318 320 322 320 321 320 319 318 314 331 352 354 354 360 355 350 354 348 345 348 347 348 347 347 347 347 348 347 348 347 347 345 344 345 344 340 338 338 337 334 335 338 338 338 337 336 338 337 338 338 339 338 335 338 339 339 339 337 338 338 338 337 335 334 335 334 331 329 329 328 325 326 329 331 332 332 333 332 332 330 328 329 332 333 332
318 317 319 322 320 320 323 321 320 320 319 320 317 317 318 316 318 317 319 316 320 346 354 349 353 355 353 353 352 347 346 347 346 348 347 347 347 347 347 347 347 347 346 344 345 345 344 341 338 339 338 335 337 339 337 338 337 338 339 337 338 338 338 336 335 337 339 339 338 337 338 337 336 335 334 335 337 336 333 330 329 326 323 323 326 329 330 331 331 331 330 328 328 331 333 333 332
323 321 320 324 323 321 321 322 323 323 321 319 317 317 317 316 315 315 318 313 327 355 353 350 354 350 351 352 351 346 344 346 346 347 346 347 347 347 347 347 347 346 346 345 345 345 344 343 339 338 338 336 337 337 337 337 337 338 339 338 337 337 337 335 334 336 337 339 338 338 336 334 334 334 337 338 337 335 332 331 329 325 322 322 325 328 330 330 330 330 328 328 330 332 333 333 333
324 322 325 329 328 325 324 325 325 325 323 320 322 321 317 314 316 316 317 316 332 354 350 354 355 349 353 353 349 345 343 345 345 345 346 347 346 347 347 347 347 346 346 345 345 345 345 343 340 340 340 337 337 337 336 335 336 337 339 338 336 336 336 334 334 334 335 337 338 338 334 334 336 337 338 338 336 334 332 331 328 325 323 321 323 327 329 329 329 327 327 329 331 333 333 333 333
326 323 326 325 324 326 324 323 323 325 327 325 323 319 315 314 318 315 324 339 345 351 347 349 351 351 354 352 349 345 343 343 343 345 345 346 346 346 347 346 347 347 346 345 345 344 344 343 341 342 342 340 338 337 335 332 332 336 338 338 337 336 335 334 333 333 334 336 337 337 334 335 338 337 337 337 336 334 332 330 328 327 324 320 321 326 327 327 327 326 329 331 332 333 333 333 332
325 324 325 319 319 324 320 320 322 322 325 325 319 315 315 316 317 318 342 360 353 350 349 347 347 353 355 351 351 347 344 343 342 345 344 346 346 345 346 346 346 346 345 345 345 345 344 343 341 341 342 341 338 337 336 332 330 334 338 339 337 336 336 334 333 333 334 335 336 336 335 335 337 337 336 337 335 333 332 330 328 328 326 320 318 322 325 325 325 328 331 332 333 333 333 333 331
320 323 328 323 319 321 319 319 320 318 319 320 315 313 316 316 314 323 348 357 350 345 347 347 344 353 357 354 356 348 343 343 343 344 344 345 345 345 346 345 346 345 345 345 345 345 344 343 341 341 341 340 338 338 336 334 334 336 339 339 337 335 336 335 333 333 334 334 334 335 335 336 337 336 336 337 336 333 331 330 329 328 327 322 317 320 323 324 326 330 332 332 333 333 333 333 331
319 324 325 322 320 318 319 318 316 316 318 319 314 312 316 315 317 330 341 346 351 346 346 351 346 349 353 354 356 346 342 344 343 344 344 344 343 344 344 344 346 345 346 345 345 345 344 344 342 342 342 341 340 338 337 337 338 339 340 338 335 334 334 334 333 332 333 333 333 334 334 336 338 336 337 338 336 333 331 330 330 329 328 323 318 319 321 324 329 331 332 333 333 333 333 332 332
316 323 324 321 320 318 319 318 314 314 317 319 315 312 314 313 321 338 343 346 356 350 346 349 344 346 350 351 349 343 343 343 344 345 343 343 342 342 344 344 345 345 346 345 345 345 344 345 344 343 343 342 340 339 339 339 340 339 339 338 336 334 334 335 333 334 335 333 334 335 334 336 338 336 337 338 336 333 331 331 331 330 329 325 320 319 322 327 330 331 332 334 333 333 333 332 331
314 322 323 320 320 318 319 320 316 313 314 316 314 313 313 313 319 333 348 348 349 349 345 346 343 344 346 346 344 342 343 343 344 345 343 343 342 342 344 344 345 345 345 345 345 345 346 345 345 344 344 342 340 340 340 340 340 340 338 337 337 335 335 335 335 336 336 335 336 336 335 335 337 336 336 338 336 333 332 331 331 331 330 327 322 321 325 328 330 331 333 334 334 334 333 332 331
317 320 320 322 322 318 318 319 317 313 314 314 315 313 312 315 312 324 352 350 351 360 349 345 347 345 343 342 341 341 341 343 344 344 343 343 342 342 343 343 344 343 344 345 345 345 346 346 345 345 344 343 341 340 340 340 340 340 339 337 337 336 336 334 335 338 337 336 337 337 336 335 336 336 336 337 337 334 332 331 331 331 331 329 324 323 327 329 329 331 332 334 335 334 334 332 332
319 318 318 323 320 317 317 316 315 314 314 313 315 313 313 316 309 325 356 350 354 364 352 350 352 347 346 342 340 341 341 342 343 343 343 343 343 343 342 343 343 343 344 345 345 346 346 346 345 345 345 343 342 342 341 341 341 340 339 338 337 337 336 334 335 339 338 336 337 337 336 335 334 335 336 337 337 335 333 332 331 331 331 330 326 324 327 328 329 331 332 334 334 334 334 333 332
317 316 319 322 315 316 316 314 315 314 313 313 314 313 315 314 313 336 356 350 350 351 348 354 353 346 345 342 339 340 340 341 341 341 343 343 344 343 342 342 342 343 344 344 345 345 346 345 345 345 344 342 342 342 341 342 341 340 339 338 337 337 336 335 335 338 338 337 337 337 337 335 333 335 337 337 337 335 334 332 331 331 331 331 327 324 326 327 329 331 332 334 334 334 333 333 332
315 316 318 319 313 314 315 315 316 314 313 313 313 313 314 312 317 337 346 347 349 349 349 348 346 344 343 341 340 340 340 341 340 340 341 342 343 342 341 340 340 342 343 344 344 344 345 345 345 344 343 342 341 341 341 341 341 340 339 338 337 337 337 335 335 337 338 337 337 337 337 335 334 335 336 336 336 335 334 333 331 331 331 331 329 325 325 327 329 330 332 333 334 334 333 333 332
315 316 315 316 314 314 314 314 314 313 313 313 314 311 313 314 315 323 324 327 327 333 347 344 342 342 341 340 339 340 341 341 340 338 340 341 341 341 341 340 339 340 341 342 343 344 344 344 343 342 341 341 341 341 341 341 340 340 339 338 337 337 337 335 335 337 338 338 337 337 337 335 335 335 335 334 335 335 334 333 332 331 330 331 330 327 325 327 329 330 331 332 333 334 333 332 332
314 317 315 315 314 314 313 314 313 313 313 312 313 310 313 315 313 314 313 319 326 334 344 344 342 341 340 340 339 340 341 340 339 338 339 340 340 340 339 339 338 339 340 342 342 343 343 342 341 340 341 341 340 340 341 340 340 340 338 338 338 338 337 335 334 335 338 338 337 338 336 335 335 336 336 334 334 334 333 333 333 331 330 331 330 329 326 327 329 330 331 332 333 334 334 333 332
313 315 316 314 314 315 313 313 312 312 313 312 312 312 314 314 313 312 313 331 345 346 345 343 342 340 340 340 339 340 339 339 338 338 339 339 339 339 338 338 338 338 340 340 341 342 342 340 339 339 340 340 339 339 339 339 339 339 338 337 338 338 338 335 334 334 337 338 338 338 336 335 335 334 335 335 333 333 332 333 333 332 331 330 330 330 328 328 330 331 332 333 333 334 334 333 332
314 314 315 314 314 315 313 313 314 312 313 313 312 314 315 311 313 311 318 339 349 345 345 344 341 341 341 340 339 339 340 339 337 337 338 338 338 338 338 338 337 338 338 340 339 340 341 339 338 338 339 338 338 339 338 338 339 338 338 337 337 338 338 336 335 335 336 337 338 338 337 335 334 332 333 334 333 332 332 332 332 332 332 331 330 330 330 329 330 332 333 333 332 332 334 334 333
315 314 314 314 314 313 311 313 314 311 311 313 312 314 315 310 314 312 320 339 347 344 345 343 341 341 340 340 339 339 339 338 337 336 337 336 337 337 338 338 338 338 338 338 338 339 340 338 337 337 338 337 337 338 337 338 338 339 338 336 337 338 338 337 335 335 336 337 337 337 337 335 334 332 332 332 333 332 331 332 332 332 332 332 331 330 330 330 330 332 332 331 331 331 333 334 334
313 313 312 313 313 311 311 312 312 311 311 314 312 313 314 310 314 313 321 339 346 345 346 342 343 342 340 341 339 339 338 336 336 336 336 335 336 336 337 338 338 338 337 337 337 338 339 338 336 335 337 337 337 338 337 337 338 339 338 336 337 338 338 337 336 335 336 337 337 337 336 335 335 333 332 332 332 332 331 332 332 331 332 332 331 331 330 330 330 331 330 330 331 331 332 334 334
311 312 312 315 316 312 312 313 312 312 311 314 312 311 314 313 314 312 323 342 346 344 346 344 343 342 341 341 340 339 337 335 335 334 336 336 336 336 336 338 338 338 338 337 337 337 338 337 336 335 336 336 337 337 336 336 338 338 337 336 337 338 338 337 335 336 336 337 338 337 337 336 335 334 332 332 333 332 331 332 332 330 330 330 331 331 331 330 330 330 330 330 330 330 330 332 334
311 311 312 315 315 314 312 311 311 312 312 313 311 312 317 318 315 311 325 344 347 344 347 344 344 343 342 341 339 340 337 335 335 334 336 336 336 337 336 337 337 338 337 337 337 336 337 336 336 337 336 336 335 336 336 336 337 337 336 337 338 338 337 335 334 335 335 335 337 337 337 336 336 334 332 333 334 333 331 331 329 328 327 329 330 331 331 330 330 330 330 329 330 330 330 332 333
313 309 314 315 311 314 316 313 313 312 312 314 311 313 316 315 314 311 326 344 349 347 348 344 344 343 341 342 340 340 338 335 335 334 336 336 336 337 337 337 337 337 337 336 337 336 336 335 336 336 336 336 334 335 336 336 337 336 336 336 337 338 336 334 333 334 333 334 337 338 337 336 336 335 333 333 334 332 330 329 328 327 328 329 329 330 330 330 330 330 329 330 330 330 331 332 333
317 310 318 318 311 316 318 313 314 312 311 313 311 314 317 313 313 308 321 342 350 348 349 344 344 344 341 342 340 340 338 334 334 334 335 336 336 336 336 337 337 337 337 337 336 336 336 335 335 336 336 335 334 334 335 336 336 336 335 335 335 336 335 334 334 334 334 335 337 338 338 337 336 336 334 334 334 331 329 330 329 330 330 330 331 330 330 330 330 330 330 330 330 331 331 332 332
323 314 319 318 311 315 315 311 314 313 311 312 311 315 318 312 310 307 317 340 349 346 347 345 344 343 342 342 340 340 339 337 336 334 335 336 336 336 336 337 337 337 337 337 337 336 336 336 336 336 335 334 334 335 336 336 336 336 335 334 334 334 334 335 335 334 334 335 337 338 338 337 336 336 335 334 334 331 330 331 331 331 331 331 332 332 331 331 330 330 331 331 331 331 331 332 331
320 317 318 316 313 312 311 313 313 311 313 313 312 314 317 312 309 309 314 329 343 347 346 344 344 343 342 343 341 340 339 340 339 335 334 335 335 336 336 336 337 337 337 337 337 337 337 336 337 336 335 334 335 336 336 336 337 336 335 335 334 334 334 334 334 335 334 335 337 337 337 337 335 335 335 335 334 332 331 331 331 332 333 332 332 332 332 332 332 331 331 332 331 331 331 331 331
318 317 316 314 313 312 312 315 313 312 313 313 313 313 314 312 311 314 311 317 335 343 343 343 344 344 343 342 341 341 339 340 339 336 335 335 335 336 335 336 337 336 337 337 337 337 337 336 337 336 336 336 336 336 337 337 336 336 336 336 335 334 334 334 335 335 335 335 336 336 337 336 335 336 336 335 334 333 333 332 332 333 333 333 333 333 333 333 332 331 331 332 332 331 331 331 330
320 320 319 315 311 312 313 314 314 312 312 314 314 313 316 318 318 322 318 319 329 334 338 344 344 344 344 342 342 340 340 340 338 335 335 335 335 336 336 336 336 337 337 337 337 337 336 336 336 336 336 336 336 336 336 337 336 336 336 337 336 335 334 334 335 336 336 336 336 337 337 336 336 335 335 335 334 333 333 333 333 333 334 334 333 333 333 333 333 332 332 332 332 331 330 330 330
317 316 316 314 310 314 314 314 315 311 313 317 314 316 324 325 325 327 325 327 330 329 335 343 343 343 342 341 341 341 341 340 337 336 336 335 335 335 336 336 337 338 337 337 337 337 336 336 336 335 335 335 335 336 336 336 336 335 335 336 337 337 336 336 336 336 337 337 336 337 337 336 335 334 334 335 335 334 334 333 333 334 334 334 333 333 333 334 333 332 332 332 332 331 330 330 330
314 314 313 312 311 314 313 312 313 312 315 316 315 323 328 325 327 329 329 332 332 329 331 337 340 342 342 341 342 342 342 341 339 338 336 335 336 336 336 337 337 337 337 337 337 337 337 336 336 335 336 336 335 335 336 336 336 335 335 335 336 337 337 337 336 336 336 336 336 336 336 337 336 335 334 334 335 334 333 333 333 334 335 334 333 333 334 334 333 333 332 332 331 331 330 329 329
316 315 313 313 313 313 314 317 316 313 314 315 318 326 324 321 326 328 330 332 332 331 331 332 335 338 339 339 341 345 346 344 343 340 337 337 337 337 338 338 338 338 337 337 337 336 336 335 334 333 334 336 336 336 335 336 335 335 335 334 334 336 337 337 336 336 335 335 335 336 336 336 336 336 334 334 335 335 333 333 333 334 334 334 334 334 333 334 334 332 332 331 331 330 329 329 329
318 317 314 314 314 312 315 320 319 315 314 315 320 325 324 323 326 327 328 331 332 332 331 331 332 334 335 333 335 342 346 345 343 341 340 339 339 340 339 339 338 337 334 333 333 333 333 333 333 333 333 335 336 336 336 336 336 335 335 334 334 334 335 336 335 334 333 332 334 334 335 336 336 336 335 334 335 335 334 333 333 334 334 334 334 333 332 333 334 333 331 331 331 330 329 328 329
316 319 318 316 315 313 315 318 321 321 317 315 319 326 328 326 328 328 327 331 332 331 331 332 331 331 332 332 333 336 339 341 343 343 342 340 340 339 336 335 334 332 330 330 331 331 332 333 332 333 334 335 336 336 336 336 336 336 335 335 334 334 334 333 332 331 331 331 332 333 334 336 336 336 336 335 334 335 334 334 333 333 333 334 334 334 333 333 333 332 331 332 331 331 329 328 329
314 316 318 317 316 315 316 317 322 325 318 312 316 325 325 325 330 329 329 333 332 331 331 331 331 330 331 332 332 332 333 335 337 337 335 334 334 332 329 329 329 329 329 330 331 332 333 332 331 332 333 335 336 335 335 335 336 336 335 335 334 332 333 332 330 330 330 331 332 333 334 335 336 336 336 335 334 334 334 334 333 332 333 334 334 333 333 334 333 332 332 332 331 331 330 329 328
314 315 316 315 316 315 316 316 316 321 318 313 316 322 321 325 331 329 330 334 332 331 332 331 331 330 330 330 329 329 330 330 330 328 327 328 329 328 327 328 329 330 330 330 331 332 331 331 331 332 333 335 336 336 336 335 335 336 336 335 333 331 331 332 331 330 331 332 332 333 334 335 335 336 335 335 334 334 334 334 332 331 332 334 334 332 333 334 333 332 332 332 332 331 330 329 329
316 316 314 313 314 315 319 318 315 319 319 318 322 325 327 330 331 329 332 335 333 333 332 331 331 329 329 329 327 327 328 328 329 327 327 328 329 328 328 328 329 330 330 330 331 329 325 326 329 333 333 334 335 336 336 335 335 335 334 333 332 331 330 331 330 329 331 332 331 332 334 334 335 335 335 334 334 334 334 333 332 331 332 333 333 333 333 333 332 333 333 332 331 330 330 330 329
317 316 313 313 315 316 319 318 322 324 316 317 324 325 328 329 328 331 334 335 335 335 333 331 332 329 328 327 326 326 325 326 327 327 329 329 328 328 327 327 328 329 330 330 330 331 330 330 331 333 334 335 335 335 336 336 335 335 333 331 331 331 331 330 330 329 330 331 331 333 333 332 334 335 335 334 333 333 333 332 332 331 332 332 332 333 333 330 331 333 333 332 331 330 330 331 330
314 313 313 315 317 319 322 320 324 326 318 318 323 324 330 331 330 334 335 335 336 335 333 332 330 328 327 325 324 324 323 323 324 325 326 327 327 327 327 326 326 327 328 329 330 330 330 331 332 333 334 334 335 335 335 335 335 333 331 330 330 330 330 330 330 329 330 331 332 333 332 332 333 334 334 334 333 333 333 333 332 332 332 331 332 333 331 329 331 333 333 332 332 331 331 331 331
311 313 313 315 320 325 331 331 325 320 320 323 322 323 333 334 333 336 336 334 335 333 333 331 329 327 325 323 322 322 321 321 321 322 322 323 323 324 325 325 325 325 326 327 328 328 329 330 330 332 333 333 334 335 334 334 334 333 331 329 329 329 330 330 330 329 331 332 333 332 330 331 332 333 333 334 333 333 333 333 332 332 332 331 332 332 329 330 333 333 333 333 332 332 331 331 331
314 318 315 314 321 325 328 331 325 319 320 323 320 320 328 332 333 336 335 333 331 331 332 330 328 326 323 321 320 319 319 318 318 318 318 319 320 320 321 323 324 324 324 325 326 326 327 328 329 330 331 333 334 334 334 334 334 334 332 329 329 329 330 330 331 331 331 332 333 332 330 330 330 330 333 334 333 333 333 333 333 333 332 331 332 332 330 331 334 333 333 334 333 332 332 331 331
314 318 316 315 320 319 318 321 323 323 320 317 317 322 329 334 335 335 334 333 330 329 329 327 327 325 322 319 318 317 316 316 315 315 315 315 316 317 317 319 320 321 322 323 324 325 326 327 328 328 329 331 333 334 334 335 335 334 332 329 328 329 330 330 331 331 331 331 332 333 332 331 330 330 332 333 333 333 333 333 333 333 332 331 331 332 331 331 332 333 333 334 333 333 332 331 331
313 315 316 318 320 317 316 318 319 321 319 313 316 327 335 336 335 333 332 331 329 327 325 324 324 322 320 317 315 315 314 313 313 313 313 313 314 315 315 316 317 318 319 320 321 323 325 326 326 327 328 329 330 332 333 333 332 331 329 328 327 328 329 331 331 331 331 331 332 332 332 331 330 330 332 333 333 333 333 333 333 333 333 331 331 332 331 330 331 333 333 333 333 333 333 332 331
312 314 315 318 323 323 319 321 322 318 318 319 323 332 336 335 333 331 330 328 326 325 323 322 320 318 317 315 313 313 312 312 312 311 311 312 312 313 313 314 314 315 316 317 319 320 322 324 326 326 327 328 328 329 329 329 329 328 327 327 327 327 329 331 332 332 331 331 331 331 331 331 330 330 331 332 332 333 333 333 333 333 332 331 331 332 332 330 331 333 333 333 333 333 332 332 332
312 312 314 315 320 327 323 321 324 323 324 326 327 329 329 329 330 329 328 327 324 324 322 320 319 316 314 313 312 312 311 311 310 310 310 310 311 311 311 312 312 313 314 315 316 317 319 321 323 325 326 326 327 327 327 327 327 327 327 327 327 328 329 330 331 332 331 331 331 331 331 331 329 329 330 331 331 331 332 333 333 333 333 332 332 333 333 332 331 332 333 333 333 333 333 332 332
314 311 315 315 314 322 322 316 318 325 327 323 322 330 330 329 331 329 328 328 324 322 321 318 317 315 313 313 312 311 310 310 309 309 309 309 310 310 310 311 311 312 313 313 314 315 316 317 319 322 324 326 326 327 327 327 327 328 327 327 328 328 329 329 329 331 331 331 331 330 330 330 329 330 330 331 331 331 331 331 332 333 333 332 333 333 333 332 331 333 333 333 333 333 332 332 332
316 314 315 313 311 316 320 319 320 326 329 323 322 332 333 329 331 330 328 329 326 322 319 317 315 314 312 312 311 310 309 309 308 308 308 309 309 309 309 309 310 310 311 311 312 312 313 315 316 317 320 322 324 326 327 328 328 328 328 328 328 328 328 329 329 329 330 330 330 330 328 328 330 331 330 331 331 331 332 331 330 331 332 333 333 333 333 333 332 333 333 333 333 333 332 332 332
313 315 314 313 316 317 316 318 319 319 324 326 327 331 330 328 329 329 329 330 326 321 318 316 314 313 312 311 310 309 308 308 307 307 307 308 308 308 308 308 308 308 309 310 310 310 311 312 314 314 315 317 320 322 324 326 327 327 328 328 328 328 328 328 328 329 329 330 331 330 329 328 329 331 331 331 331 331 332 332 331 330 331 333 334 333 333 333 333 333 333 332 332 332 332 332 331
312 314 313 317 324 322 316 318 320 320 324 326 329 330 329 329 329 329 329 328 325 321 318 315 313 312 311 310 309 308 308 307 307 306 306 307 307 307 307 307 307 307 308 308 308 308 309 309 310 311 312 314 317 319 321 322 324 325 326 327 327 328 328 328 329 329 329 329 330 330 330 329 330 330 331 331 331 331 332 331 331 331 330 332 334 334 334 333 333 333 333 332 331 331 331 331 331
314 317 314 316 320 317 315 316 316 321 328 327 328 330 328 327 327 326 326 324 321 319 316 314 312 310 310 309 308 307 307 306 306 305 305 306 306 306 306 306 306 306 306 306 306 306 306 306 307 307 308 310 313 316 318 320 322 324 324 326 327 327 328 328 329 329 328 329 329 329 330 330 330 331 331 331 331 331 331 331 331 331 330 329 332 334 333 333 333 332 332 332 331 331 331 331 331
319 326 323 320 318 316 319 317 314 322 330 327 327 330 328 324 321 320 320 319 318 315 313 312 311 310 309 307 307 306 306 305 305 304 305 306 306 305 305 305 305 305 305 305 305 305 305 305 305 305 306 308 310 312 314 316 319 322 323 324 326 327 328 328 328 328 328 329 329 329 330 330 331 331 331 331 331 330 330 331 332 332 330 329 330 332 332 332 332 331 331 331 331 331 331 331 331
Wind_Speed
3 4 3 2 2 2 2 3 1 2 2 0 2 1 4 5 2 3 5 2 1 3 3 1 1 2 3 6 7 7 4 2 2 3 3 2 8 18 11 13 24 24 23 22 22 21 20 23 22 21 21 21 23 24 25 26 24 23 23 22 22 23 23 23 24 24 24 24 24 24 23 25 25 25 26 25 24 24 24 22 22 22 22 22 20 18 19 20 21 21 22 22 22 22 23 23 23
4 4 3 2 3 2 1 3 2 3 3 2 3 4 4 3 1 5 6 1 2 2 2 2 6 7 7 8 6 5 4 5 2 2 1 7 15 14 12 19 25 24 24 23 23 22 22 23 22 22 21 21 23 24 25 25 24 22 23 22 21 22 22 23 24 24 24 25 24 24 24 24 24 25 25 25 25 24 24 23 22 22 22 22 21 18 19 20 20 20 21 20 20 20 22 23 21
4 3 2 2 2 3 1 4 2 1 2 3 4 5 3 2 4 7 6 3 6 4 3 4 5 5 5 7 5 3 1 3 5 3 3 9 11 11 17 24 25 24 24 24 24 23 23 23 23 22 21 22 22 23 24 24 23 22 22 22 21 22 22 23 23 24 24 24 24 24 24 24 24 25 25 25 25 24 24 23 23 22 22 22 20 19 18 19 18 18 18 18 19 20 22 22 21
4 3 2 1 2 3 3 3 2 4 2 4 3 6 3 4 7 6 5 5 8 5 1 2 3 2 4 7 2 3 2 1 4 3 3 5 8 15 22 25 25 25 25 25 24 24 24 24 23 22 21 22 22 23 23 22 22 21 21 22 22 22 21 22 23 23 23 23 24 24 25 24 24 24 24 24 24 24 23 23 23 22 22 22 20 19 18 18 17 16 17 17 19 21 21 19 18
4 3 1 2 2 1 3 2 2 4 3 4 2 6 5 6 6 5 5 5 8 6 4 1 2 2 3 5 1 2 2 1 3 3 4 7 15 21 25 27 26 26 26 25 24 25 24 24 23 22 21 21 22 22 22 21 22 21 21 21 22 22 21 21 21 22 23 23 23 24 24 23 24 23 23 24 23 23 22 22 23 22 23 22 21 20 19 18 17 16 17 18 18 19 16 15 14
4 3 3 4 2 1 3 1 2 2 5 5 3 6 5 6 5 6 6 7 4 3 2 2 3 2 4 3 2 2 2 3 4 5 8 14 21 24 27 29 27 27 26 25 24 26 25 24 23 21 21 20 21 22 21 21 21 21 20 21 21 21 21 20 20 21 22 23 23 23 23 23 23 22 22 23 22 22 22 22 22 22 23 23 21 19 18 17 17 16 16 18 17 16 13 13 13
4 2 2 4 2 1 4 2 3 4 5 6 4 6 6 5 3 5 8 7 5 4 2 3 4 5 4 1 2 5 5 6 7 10 15 20 24 25 27 26 25 25 24 24 24 24 24 23 23 22 21 19 21 22 21 21 21 20 20 20 20 20 21 19 19 21 22 22 22 22 23 23 22 20 21 21 20 21 20 21 21 21 22 21 21 20 18 17 17 16 17 17 16 13 12 12 14
4 1 1 3 1 2 3 1 3 4 4 4 5 6 9 8 3 6 5 3 4 3 2 1 3 6 3 2 2 6 5 6 10 15 20 22 25 25 25 23 22 23 22 23 24 24 24 24 23 22 21 20 20 21 20 20 20 20 20 20 20 20 20 19 19 21 21 21 21 21 22 22 21 20 20 19 19 19 18 19 20 20 20 20 20 19 18 18 17 17 17 16 14 12 11 12 14
3 2 1 2 2 1 2 1 4 3 5 5 6 8 10 8 3 3 3 4 4 1 3 2 2 6 4 5 3 4 3 6 12 17 21 23 25 25 25 23 23 23 24 23 24 26 25 25 24 22 21 20 20 20 20 20 19 19 19 20 20 20 20 20 19 21 21 20 20 20 21 21 20 20 19 19 19 18 17 19 20 19 19 19 18 18 18 18 18 17 16 14 13 12 11 12 13
3 2 2 1 2 0 3 2 3 3 5 5 7 10 10 8 3 3 3 5 3 3 3 4 7 8 7 5 2 2 1 9 16 20 21 23 24 25 25 23 24 24 24 24 25 26 26 25 24 23 21 20 20 20 20 19 19 19 18 19 20 20 20 20 20 22 22 20 20 20 20 20 20 20 19 18 18 17 17 17 18 18 19 20 18 18 18 18 18 17 15 14 13 11 11 11 12
2 2 3 2 2 1 3 3 4 4 6 5 7 11 9 6 3 3 4 3 1 5 5 4 9 8 7 3 1 1 6 12 18 22 22 22 23 24 24 22 23 24 24 24 25 26 25 24 24 23 21 21 20 20 20 19 19 19 19 18 19 20 19 20 21 21 22 21 20 19 19 20 20 19 18 17 17 17 16 15 16 17 19 20 20 19 18 18 17 15 14 14 13 11 11 11 11
2 2 4 3 2 3 3 3 5 5 7 5 6 8 3 4 5 4 4 2 2 5 4 1 6 5 6 2 1 3 9 13 13 17 21 21 23 23 22 22 22 22 22 23 24 24 23 22 23 22 21 21 20 20 20 19 18 19 18 18 18 19 19 19 20 20 21 21 20 19 19 20 19 17 17 16 16 16 16 15 15 17 18 19 20 20 19 17 16 15 14 14 13 12 11 11 12
3 2 5 2 3 3 3 2 4 4 6 4 5 6 2 4 4 6 5 5 4 4 2 1 9 4 4 2 1 3 8 12 11 14 20 21 22 22 22 22 22 21 21 23 23 22 22 21 22 21 21 20 20 20 19 17 18 19 18 18 18 18 19 18 19 19 20 20 20 19 19 19 17 16 16 15 15 15 16 16 16 16 16 18 21 21 19 17 16 14 14 14 13 13 12 13 14
3 2 4 2 1 2 3 1 3 1 4 5 4 5 3 0 1 4 8 9 6 2 1 4 8 6 4 2 1 4 7 12 13 15 20 20 21 21 21 21 21 21 22 23 23 23 21 21 21 21 21 21 21 20 18 17 18 20 19 19 18 18 18 17 17 19 19 19 19 20 19 18 17 16 15 14 14 15 16 16 16 16 15 16 20 22 20 18 16 15 15 14 14 14 14 15 16
3 2 4 2 0 1 2 2 2 3 4 5 2 5 4 2 2 5 6 8 4 1 3 4 3 4 4 7 4 8 13 17 16 16 19 18 19 19 19 20 20 21 22 23 23 24 23 22 22 22 22 22 22 21 19 18 19 20 19 18 18 18 17 15 16 17 18 18 19 19 19 18 17 16 15 14 14 14 15 16 16 16 14 15 19 22 21 20 18 15 15 15 16 16 16 17 17
3 3 4 2 1 2 3 3 2 2 4 6 3 5 4 4 4 3 1 4 5 3 2 1 3 1 8 8 6 13 20 21 18 17 17 17 17 16 17 18 19 21 22 23 23 23 24 24 22 22 22 21 22 21 20 19 19 19 19 17 17 17 16 14 15 16 17 18 18 17 17 17 16 15 14 13 13 13 14 15 15 15 14 15 18 22 22 21 19 16 16 16 17 17 17 17 17
2 4 3 1 2 3 3 3 3 2 5 6 5 7 5 4 3 3 5 8 7 4 4 2 5 3 7 4 3 17 23 20 18 17 17 17 17 16 16 17 18 20 20 22 22 21 22 22 21 21 21 20 21 20 19 19 18 18 18 16 15 16 15 14 15 16 16 16 16 16 16 17 16 15 14 13 12 12 13 14 15 15 14 15 17 21 23 22 19 17 16 17 17 17 16 16 16
2 3 3 1 3 4 4 6 5 2 4 6 8 7 4 2 1 2 6 9 6 8 7 4 5 6 3 3 9 20 21 19 19 18 18 17 17 15 15 17 18 19 19 19 19 19 20 21 21 21 20 20 20 19 19 18 18 18 18 16 15 15 14 14 16 16 16 16 16 17 17 17 17 16 14 13 12 12 13 13 13 14 14 15 17 21 23 22 20 17 16 17 18 17 16 16 15
2 3 3 3 5 4 5 6 4 2 4 7 9 4 2 2 2 2 4 2 3 8 6 5 6 6 6 6 13 17 18 19 17 18 18 16 17 15 15 18 19 18 18 17 17 17 18 20 20 20 21 21 21 20 19 19 19 19 19 18 17 16 15 16 18 17 18 18 18 17 17 17 17 15 14 13 12 12 13 13 13 13 14 15 17 20 21 20 19 17 16 16 17 17 16 16 15
2 3 2 5 5 5 5 5 6 5 5 8 9 3 3 5 3 2 5 4 3 4 3 4 3 4 5 5 9 13 16 16 16 17 17 17 17 15 16 18 18 18 17 16 16 15 16 18 19 19 20 21 21 20 19 19 19 19 19 19 18 18 16 17 19 18 18 19 18 17 17 16 16 15 14 13 13 13 13 13 13 13 14 15 17 20 20 19 19 17 15 15 15 16 17 16 16
2 3 4 6 3 4 5 6 7 7 5 4 6 5 4 5 1 3 8 6 2 3 6 6 9 10 9 8 8 11 14 13 14 15 16 18 16 15 14 13 14 16 15 15 15 14 14 16 17 18 20 21 20 19 19 19 19 19 19 19 19 18 16 18 20 18 18 19 18 18 17 16 16 15 14 13 13 13 14 14 14 13 14 14 16 19 20 18 18 17 15 13 13 15 16 16 15
2 2 5 5 3 4 6 5 7 4 3 4 4 5 4 1 2 4 9 6 4 6 8 9 13 14 13 12 11 10 11 11 12 13 16 17 15 14 12 11 12 14 14 14 14 13 14 15 16 18 19 20 20 19 19 19 19 20 20 19 19 18 17 17 19 18 18 18 18 18 17 17 16 15 14 13 13 13 14 14 14 14 14 14 15 18 20 18 16 16 14 13 12 13 15 15 15
2 3 2 5 5 6 5 3 4 2 2 5 3 3 4 2 2 4 7 5 5 4 8 11 12 13 12 11 11 11 12 12 12 15 18 18 17 16 15 13 13 14 15 14 14 14 14 15 16 18 19 20 20 19 19 20 20 20 21 20 19 19 18 18 19 18 18 18 18 18 18 17 16 16 15 14 13 13 13 13 14 15 14 14 14 16 19 17 15 15 14 12 11 12 15 15 14
3 4 4 5 6 7 7 5 6 4 5 8 3 5 7 3 2 2 3 3 4 1 7 12 11 11 10 9 10 11 12 12 14 18 20 19 19 17 15 14 13 15 17 16 15 14 15 16 18 18 19 20 20 20 20 21 21 21 21 20 19 19 18 19 20 19 18 18 18 18 18 17 16 16 15 14 14 14 14 13 14 15 15 14 14 15 18 17 14 13 13 12 10 11 13 14 13
3 5 4 3 5 7 7 7 8 7 7 6 4 8 9 4 3 1 1 3 1 5 9 11 12 11 9 9 9 9 9 10 12 14 16 15 13 13 13 12 13 15 18 19 18 17 18 20 20 19 20 21 21 20 21 22 22 22 22 22 21 20 20 21 21 20 19 18 18 18 18 17 16 15 15 14 14 14 14 14 14 15 15 14 14 15 17 17 13 12 12 11 10 9 11 13 13
5 7 5 4 6 7 6 6 8 6 5 1 2 9 9 4 2 2 4 1 6 9 10 11 13 12 9 9 9 9 9 10 10 10 13 13 11 12 14 13 14 17 19 20 21 21 21 23 22 21 21 22 22 21 22 23 22 22 23 23 22 21 21 21 21 21 20 19 18 18 17 16 15 15 14 14 15 14 14 14 15 15 16 15 15 15 16 16 14 12 11 11 9 8 9 10 11
5 6 4 6 7 7 3 5 7 3 4 3 4 9 6 5 1 1 4 2 7 10 10 11 13 12 11 9 8 8 9 10 10 8 10 11 12 14 15 15 16 17 19 20 22 23 23 25 25 24 23 22 23 23 23 23 23 23 24 24 23 22 21 20 20 21 21 20 19 18 17 16 15 14 14 14 14 14 14 14 14 16 16 16 16 16 16 15 14 12 10 10 8 7 7 8 8
4 5 2 6 6 6 4 6 7 1 3 6 8 6 3 4 0 4 5 5 8 11 11 10 10 10 10 10 8 7 7 10 10 8 10 13 13 14 16 17 18 18 20 21 22 24 25 26 27 26 25 24 24 24 24 24 24 24 24 23 23 23 21 20 20 21 21 20 20 19 18 17 16 15 14 14 14 13 14 14 14 16 17 16 17 17 16 15 14 12 11 9 8 6 7 8 7
2 4 2 7 6 6 5 5 5 4 3 6 8 1 4 1 2 5 5 5 6 11 11 9 9 8 8 8 7 6 6 8 10 11 15 16 11 12 16 18 20 21 22 23 23 24 25 26 27 28 27 25 25 25 25 25 25 25 24 23 24 23 22 21 21 22 21 21 21 20 19 18 17 16 15 15 14 13 14 14 14 16 17 17 17 18 17 16 14 13 11 10 8 6 7 8 8
1 2 1 3 6 5 4 2 2 5 3 4 7 1 6 5 5 7 4 6 7 9 9 9 8 7 7 7 6 6 6 6 10 15 18 15 10 11 16 18 20 21 20 22 24 24 25 26 27 28 28 27 26 26 26 26 26 25 23 24 25 24 23 22 22 22 21 21 22 21 20 19 18 18 16 15 14 14 14 13 14 15 16 17 17 18 18 17 15 13 12 11 8 7 8 9 9
0 1 1 2 1 4 6 3 2 5 2 4 5 2 5 4 6 8 5 7 9 10 9 9 8 7 7 7 7 6 6 8 13 16 17 16 13 13 16 18 19 19 18 20 24 25 25 26 27 28 28 28 28 28 27 26 26 25 24 24 25 25 23 22 22 21 20 20 22 22 21 20 19 18 16 15 15 14 15 14 14 14 15 15 15 16 17 17 15 13 13 12 9 9 10 10 11
2 1 2 3 2 5 8 3 3 4 1 3 5 2 5 4 6 7 4 7 8 10 10 10 9 9 8 8 7 7 5 7 13 17 19 19 18 17 17 18 18 19 19 20 24 25 26 26 27 28 28 29 30 29 27 26 25 25 24 24 24 25 23 23 23 21 19 19 21 22 22 21 20 18 16 16 16 16 17 16 16 15 14 14 14 14 15 15 15 13 13 12 11 11 12 12 12
3 2 3 1 2 2 4 2 2 2 1 2 3 2 3 2 4 7 2 4 5 7 8 10 10 10 9 8 7 6 4 6 10 15 22 23 22 20 18 18 18 19 20 21 24 26 27 27 27 27 29 30 30 28 27 26 24 23 24 23 23 24 24 24 24 22 19 19 21 22 23 22 20 19 18 17 17 18 18 18 17 16 14 14 13 13 14 14 15 14 13 12 12 12 13 13 12
3 2 2 2 2 1 1 2 4 3 3 2 3 1 4 1 4 8 6 2 4 6 6 7 8 7 7 7 5 5 5 7 9 15 23 23 21 19 16 16 16 17 19 21 23 26 27 26 26 27 29 30 28 27 27 25 24 23 23 22 22 22 23 23 23 22 20 20 22 23 23 22 21 19 19 18 18 19 19 18 17 16 15 14 14 15 14 15 15 15 14 13 13 13 14 14 14
3 1 3 1 0 1 2 2 2 4 4 0 1 2 4 5 8 8 8 6 3 6 3 3 5 5 6 5 5 6 6 9 12 14 18 19 18 17 16 16 16 16 17 19 20 23 24 23 24 24 26 27 26 25 25 23 22 22 22 22 21 22 22 21 21 21 20 21 22 23 23 23 21 20 20 20 20 21 20 19 18 17 16 15 15 16 16 16 16 16 16 14 14 13 14 16 15
7 4 5 4 1 2 5 4 6 1 3 2 4 2 3 7 9 10 9 6 3 3 5 1 3 4 5 5 5 5 6 9 11 10 12 15 17 17 17 17 16 15 15 17 18 19 21 21 21 22 22 23 23 23 23 23 22 22 22 21 21 22 22 21 20 21 22 23 23 23 24 24 23 22 22 22 22 22 21 20 19 17 17 17 17 19 19 18 17 18 17 17 17 14 14 16 16
7 5 5 4 2 3 5 4 7 2 2 3 2 5 8 8 8 9 7 8 11 9 7 3 1 0 2 3 3 5 5 8 9 8 9 12 15 16 16 15 14 14 14 16 17 17 18 18 19 20 20 20 22 23 22 23 24 23 23 23 23 23 23 22 21 22 23 22 22 24 25 25 25 25 25 25 24 23 23 22 21 19 19 19 19 20 20 19 19 19 18 18 18 17 15 15 16
6 5 5 3 1 4 6 4 5 2 2 2 5 11 8 7 7 9 8 11 13 11 8 7 5 2 1 1 3 5 5 6 7 6 6 6 8 11 11 11 10 11 12 14 15 16 17 17 17 17 17 18 21 21 22 24 25 24 24 24 25 23 23 24 23 24 24 22 23 25 26 26 27 26 25 26 25 25 24 24 23 21 20 19 19 20 20 20 21 21 20 19 17 17 16 16 18
5 4 4 1 2 3 6 4 4 4 2 1 8 11 5 6 6 8 12 11 8 7 7 8 8 7 5 3 3 4 5 5 5 6 8 6 4 5 7 8 9 10 11 11 12 11 8 5 5 7 10 13 15 17 19 21 23 23 21 21 22 21 21 23 24 25 24 23 25 26 25 25 27 27 25 26 26 26 26 26 25 22 20 19 20 20 21 21 22 22 22 20 18 16 15 17 21
4 4 5 2 3 0 3 4 3 4 3 4 9 9 4 6 6 8 11 8 6 8 9 10 10 9 8 6 4 3 3 3 4 5 5 5 5 4 3 5 8 9 10 12 10 7 8 8 5 7 12 15 14 15 17 19 21 21 20 19 20 20 20 20 20 22 22 22 24 26 26 26 27 27 26 26 27 27 27 27 24 22 21 21 21 20 21 21 23 23 22 22 21 18 15 18 20
1 3 5 3 3 3 4 3 4 4 4 5 8 7 5 6 8 8 8 6 8 11 12 13 13 11 10 9 10 8 5 4 5 5 6 6 8 11 14 13 11 14 16 14 12 7 7 9 10 13 17 18 16 16 17 17 20 21 19 19 18 18 19 17 15 17 21 23 23 25 27 27 27 28 27 27 27 27 27 26 24 22 22 23 23 22 21 22 23 23 23 23 23 20 17 19 20
2 3 6 7 6 5 5 3 5 5 3 1 5 6 2 4 7 7 6 7 10 12 15 15 13 12 12 11 11 11 10 8 7 8 9 10 12 15 19 20 17 15 11 3 2 3 9 17 18 17 16 15 14 14 15 16 18 20 20 20 17 16 17 17 16 18 22 25 24 24 26 27 28 28 27 27 27 26 26 26 24 22 23 24 24 22 21 22 23 23 24 24 23 22 19 20 20
2 5 8 8 6 5 4 2 2 2 2 2 4 6 2 3 5 6 5 7 12 12 14 14 12 12 11 11 11 11 12 10 9 10 10 11 13 13 14 15 14 12 11 9 10 12 5 11 19 19 16 16 16 16 16 17 18 19 20 20 19 17 17 20 20 19 22 24 23 23 25 27 28 27 26 26 26 25 25 25 23 22 23 25 24 21 21 23 23 22 24 25 24 23 21 21 21
3 6 9 9 7 6 4 4 3 2 3 1 4 5 5 1 3 4 5 6 12 13 13 13 11 12 12 12 12 12 12 11 10 10 10 11 13 12 10 10 9 9 9 10 11 10 8 5 14 20 20 20 21 20 19 19 20 20 19 17 18 19 19 20 19 18 21 22 23 24 24 25 26 24 24 26 26 25 24 24 23 22 23 24 23 23 23 24 24 23 24 25 24 23 22 22 22
5 6 8 8 7 6 5 5 3 1 0 2 6 4 5 1 3 4 4 5 10 11 11 12 11 12 12 12 12 13 12 12 12 11 10 11 13 14 12 10 10 6 1 5 5 2 2 5 12 18 21 21 21 20 20 19 20 20 17 16 20 21 21 22 17 15 18 20 22 24 23 22 23 23 24 26 27 27 26 25 23 23 23 24 24 24 25 24 23 24 24 25 24 23 22 22 22
5 6 7 4 5 4 4 5 3 3 3 3 6 3 5 1 4 3 2 4 7 7 7 9 10 11 12 12 12 12 11 10 11 11 12 14 15 16 15 15 16 13 7 6 9 8 5 5 8 12 15 16 16 17 17 17 19 18 15 16 20 21 21 23 18 14 16 17 19 20 19 20 22 24 25 26 27 27 26 25 23 23 23 23 23 24 26 26 25 24 25 25 24 23 22 22 22
6 8 7 6 5 5 4 3 3 4 1 5 5 1 5 1 3 2 2 4 5 4 5 7 9 11 11 11 11 11 10 9 10 10 13 17 20 21 20 19 19 19 17 13 11 11 11 10 11 12 13 14 13 13 13 14 16 17 16 16 19 22 22 19 16 15 16 16 17 18 18 21 22 23 24 25 26 26 25 25 24 24 23 23 24 26 28 27 25 24 24 24 24 22 21 22 22
6 5 5 5 3 4 4 4 4 4 2 5 3 2 5 3 1 1 5 6 5 4 5 7 9 11 10 10 10 10 10 10 10 10 12 16 18 21 23 23 22 23 24 22 17 13 12 11 12 13 13 14 13 13 12 14 17 19 19 18 20 23 21 17 15 17 18 18 19 19 19 20 20 22 25 25 25 25 24 25 25 25 23 24 26 27 27 25 23 23 25 25 24 23 21 22 23
5 5 6 6 1 2 2 2 0 2 3 2 4 3 4 3 1 4 7 8 7 7 7 9 9 10 10 10 10 9 9 10 11 10 11 12 13 16 19 21 23 24 26 25 21 18 14 12 12 13 14 14 12 14 16 18 21 21 19 18 20 19 16 14 14 17 19 20 21 21 22 22 23 25 28 27 25 24 24 25 25 25 24 24 26 27 26 24 23 23 24 24 24 23 22 22 24
4 5 6 5 3 3 2 1 0 1 2 2 4 3 2 1 2 5 7 8 8 9 10 10 10 10 10 10 10 10 11 11 10 10 10 10 13 16 18 19 21 24 25 25 24 22 19 16 15 15 16 15 12 13 16 17 17 15 14 14 16 16 14 12 13 17 20 20 20 21 23 23 24 26 28 27 25 24 24 24 25 26 25 24 26 27 26 24 24 24 24 24 23 22 22 22 23
4 4 5 5 4 5 4 3 3 3 1 2 5 3 1 2 1 4 6 7 8 9 9 10 10 10 9 9 10 11 11 11 10 10 11 12 15 17 19 20 22 23 24 25 25 25 23 20 18 17 17 16 16 14 13 14 15 13 12 13 15 15 13 11 12 16 19 20 21 21 22 23 22 22 24 23 22 23 25 25 25 26 26 25 26 27 25 24 26 24 22 23 22 21 22 22 22
2 3 6 4 5 6 3 3 4 5 3 3 3 1 0 1 0 2 5 7 8 9 8 9 10 9 8 8 10 10 10 10 10 10 11 14 16 18 19 20 21 23 24 24 25 25 24 22 21 20 18 17 17 16 14 14 15 15 16 17 17 16 15 14 14 17 19 20 21 21 21 20 19 19 20 18 19 21 23 24 25 26 26 24 25 25 23 23 25 23 22 22 21 21 22 21 20
2 2 4 4 4 8 6 2 1 4 5 1 2 2 1 0 1 1 5 7 8 9 9 9 8 8 9 9 9 10 9 9 10 9 10 13 16 18 18 18 19 21 22 23 24 24 23 23 23 22 20 18 17 16 14 13 14 15 17 17 18 18 18 18 17 17 17 17 18 18 18 15 14 17 18 16 16 19 21 23 24 25 25 24 25 24 21 22 24 22 21 22 21 21 21 20 19
5 3 5 3 3 6 5 3 3 4 4 0 1 2 3 1 1 1 5 7 8 8 8 8 8 9 10 9 9 10 10 9 9 10 10 13 15 17 18 18 18 19 19 21 23 24 24 24 24 23 22 19 17 15 13 12 13 14 15 16 16 17 18 18 17 16 16 17 18 17 16 16 15 15 16 15 16 18 20 22 23 24 24 23 23 23 22 22 23 21 21 22 21 21 21 20 19
5 5 5 4 4 2 2 3 2 3 3 0 1 1 1 1 1 2 4 6 8 7 7 7 8 9 9 9 9 10 10 9 9 9 9 12 15 17 18 19 20 22 22 22 24 26 27 27 26 26 24 23 21 18 15 14 14 15 16 16 16 16 16 18 18 19 20 21 20 17 16 18 18 17 16 16 16 18 20 21 21 23 24 23 21 22 22 21 21 22 22 21 20 20 19 19 19
5 5 3 2 3 4 3 3 3 4 4 1 2 1 2 2 2 1 3 6 8 8 7 7 7 8 7 7 8 9 10 9 9 9 9 12 16 18 18 18 20 22 23 23 24 27 28 29 30 30 28 27 27 23 20 19 16 16 17 17 18 18 17 17 19 20 21 23 23 22 21 20 19 19 19 17 17 18 19 21 21 21 24 23 22 21 20 20 21 22 22 20 19 18 18 18 18
4 3 2 1 2 2 3 2 2 4 5 3 3 2 2 1 0 2 6 7 7 8 8 7 6 6 7 7 8 8 8 9 9 9 9 12 16 18 19 19 21 24 25 25 25 26 26 27 29 30 29 29 30 28 25 23 20 17 18 17 17 17 16 16 18 20 20 22 25 25 23 20 19 20 20 18 17 17 18 20 22 22 22 22 22 22 20 20 22 22 21 19 19 18 17 18 18
5 4 3 3 3 4 4 2 1 3 4 4 5 4 2 2 3 4 7 7 7 7 8 8 6 6 7 7 8 8 8 9 9 9 10 12 15 17 18 20 22 25 27 28 28 27 27 27 27 29 29 29 30 30 28 25 22 20 19 18 16 15 15 17 19 20 19 21 23 24 23 22 20 20 20 19 18 16 18 20 22 22 22 19 20 20 20 21 22 21 21 20 19 18 18 19 19
Wind_Direction
94 79 72 70 7 349 331 57 91 325 87 256 278 221 251 232 240 283 281 308 353 299 273 297 78 37 75 113 132 132 93 89 152 125 196 275 125 147 145 142 151 148 148 152 153 157 158 154 151 148 147 148 148 146 144 142 138 133 131 129 128 128 126 128 132 132 131 128 124 123 122 121 120 119 120 121 120 118 117 115 116 115 113 111 107 103 101 98 96 97 98 99 99 96 94 95 94
97 91 65 63 26 49 238 73 99 326 50 309 279 184 255 274 252 241 239 192 214 258 315 19 74 59 61 91 108 101 45 24 55 99 97 109 119 135 144 150 152 149 151 154 157 160 159 155 152 150 149 151 151 149 146 143 139 134 133 130 130 131 130 133 134 134 131 128 126 124 123 121 121 121 121 123 123 121 118 117 117 117 115 114 110 104 102 100 98 98 100 100 98 96 95 95 94
105 105 54 84 40 47 72 46 103 44 88 253 275 230 261 280 232 234 229 220 244 265 331 334 51 51 56 63 45 64 19 8 60 64 94 116 118 134 150 153 153 153 154 157 161 163 159 156 155 153 152 153 153 151 146 143 140 137 135 133 133 134 134 136 135 134 131 130 129 126 124 124 123 122 123 123 123 122 120 119 119 120 118 116 114 108 105 103 101 100 101 100 99 100 99 99 98
115 108 28 109 54 30 64 42 139 120 142 219 271 257 236 222 240 253 247 228 246 255 254 295 39 9 79 83 62 88 66 12 64 79 117 131 144 152 156 156 157 157 157 160 162 162 160 158 158 155 153 154 154 151 145 143 143 140 138 137 138 137 137 137 135 133 132 132 130 128 127 126 125 124 124 122 121 120 121 120 120 122 123 119 115 113 111 109 106 105 103 99 101 102 102 101 101
122 120 41 79 94 32 98 79 113 125 201 193 230 261 232 223 249 279 277 261 253 221 188 121 72 296 78 83 117 97 51 135 100 103 122 150 160 159 163 163 163 161 161 162 161 162 161 160 159 156 153 153 154 151 146 146 146 142 140 141 141 139 137 136 136 134 134 135 132 131 129 128 127 126 125 123 122 123 123 121 120 125 127 122 119 120 117 115 113 110 106 105 105 104 101 98 98
125 122 56 56 94 153 115 124 151 202 229 171 196 261 239 226 245 287 315 311 296 158 176 87 128 149 85 49 66 64 306 193 133 145 159 162 166 166 168 169 167 164 162 161 162 163 159 159 160 156 154 154 156 155 151 149 147 141 139 142 141 139 137 136 137 136 136 136 134 133 132 130 129 127 127 126 126 126 126 125 124 126 128 125 123 122 120 118 117 113 111 112 110 104 97 91 90
133 126 32 59 45 32 112 162 187 231 243 174 201 266 270 254 240 315 343 335 353 63 51 83 124 105 78 348 73 356 315 198 171 171 171 167 171 170 168 168 164 161 160 161 162 161 158 161 161 157 157 158 158 156 152 148 146 142 143 143 140 139 136 136 139 139 138 136 136 135 135 133 131 131 133 130 129 128 126 126 126 125 126 128 127 125 126 125 122 119 119 116 111 103 95 88 88
122 133 28 99 58 11 107 176 219 220 247 213 231 264 276 279 295 327 343 331 324 22 35 64 88 82 52 25 81 334 338 190 185 173 169 167 170 166 165 164 159 160 161 163 162 159 160 164 164 161 160 159 157 154 149 146 147 145 146 145 142 140 138 138 141 139 137 137 138 137 137 136 133 134 138 133 129 127 125 126 124 123 125 129 131 130 131 130 126 126 123 118 111 103 94 87 90
79 51 77 101 129 24 57 296 263 235 256 263 263 262 268 276 282 280 286 293 275 62 13 317 58 98 106 72 89 305 353 166 166 164 168 167 166 163 165 165 161 162 164 165 162 161 165 167 166 162 161 158 154 150 149 148 148 147 147 148 144 142 141 142 143 141 139 140 141 139 138 138 135 135 138 133 128 127 125 126 123 123 126 130 134 134 135 134 132 130 127 121 112 102 91 86 89
49 22 130 88 126 194 325 287 265 254 255 258 266 265 265 268 227 188 253 286 264 97 68 57 75 111 128 97 92 284 183 157 154 161 170 165 163 163 165 167 165 164 165 165 163 165 166 167 167 164 162 158 154 152 152 151 150 148 150 151 147 146 146 145 147 146 142 143 144 142 141 140 138 134 134 132 131 131 126 125 124 124 128 133 138 140 142 140 137 135 130 123 113 102 90 85 91
46 352 101 85 91 182 247 252 271 265 270 287 282 269 258 249 181 198 220 233 343 111 162 77 78 116 109 88 106 175 165 164 163 164 166 164 163 165 165 166 167 166 165 164 166 168 165 166 167 165 163 159 157 156 155 154 154 153 155 155 151 152 151 149 150 150 145 144 146 146 145 141 136 133 134 136 136 134 129 126 124 126 130 136 142 147 148 145 141 138 131 123 112 102 92 91 100
96 332 69 97 149 188 205 228 269 278 294 305 284 281 266 161 145 200 190 159 76 124 208 147 135 142 91 91 196 170 174 179 180 165 163 165 166 166 166 166 168 167 164 163 166 167 165 166 165 163 162 162 161 159 158 157 158 158 158 159 157 157 155 152 151 153 150 146 148 149 145 138 135 137 140 141 138 134 131 127 124 126 130 138 146 150 151 147 144 138 131 119 109 102 98 102 113
122 151 90 129 193 170 176 212 269 304 309 284 252 287 35 129 168 192 143 68 53 122 291 151 152 134 88 135 198 188 194 194 188 166 164 167 168 168 166 167 168 166 161 162 165 166 168 167 165 163 162 163 164 162 162 159 162 164 162 163 162 161 158 154 153 155 155 152 152 150 144 138 139 145 146 143 140 136 132 128 126 126 129 139 147 152 152 148 144 137 126 115 107 106 108 113 120
145 149 120 174 220 148 174 225 278 296 283 265 252 299 335 262 204 152 109 65 35 113 135 113 129 96 104 153 208 211 204 193 181 169 169 167 169 167 165 166 166 164 163 165 166 167 168 169 168 167 166 168 168 167 166 163 167 169 166 166 164 162 159 157 156 157 159 157 155 151 146 143 145 148 149 145 141 137 133 130 128 126 129 138 148 152 152 148 143 135 120 112 111 112 114 119 123
165 128 98 125 3 294 215 218 219 159 253 265 274 319 340 359 61 104 103 103 71 31 120 111 101 83 160 178 203 210 189 183 176 171 170 166 167 165 165 165 164 167 167 168 168 169 169 170 172 172 173 173 172 171 169 168 171 171 167 167 164 162 162 160 159 159 160 161 159 154 150 148 149 151 151 148 141 136 135 133 129 129 131 137 147 152 151 147 141 131 119 114 115 114 117 120 123
139 103 71 89 215 255 225 211 185 166 255 262 291 357 22 7 41 87 1 131 119 12 50 92 332 348 178 187 215 189 176 174 172 172 166 162 166 165 167 165 166 170 171 171 171 173 172 171 173 174 175 175 173 172 170 170 171 170 168 167 165 165 164 163 163 160 161 162 160 156 153 151 151 152 152 149 143 138 138 136 132 133 133 137 147 151 150 146 140 130 121 117 115 114 117 120 121
77 85 73 70 205 210 207 208 177 183 265 278 326 18 37 354 32 89 34 59 90 53 35 46 342 332 178 211 199 163 164 166 165 166 161 161 165 163 169 170 171 174 174 174 174 176 175 173 173 173 175 175 174 171 170 170 171 173 171 168 165 167 167 167 166 162 161 160 160 159 157 157 153 152 153 150 145 142 143 140 135 135 136 138 145 150 149 145 139 133 124 117 116 116 118 121 122
79 101 119 174 204 205 187 196 196 206 279 295 326 7 33 341 95 132 61 49 66 69 43 43 26 19 62 76 124 145 154 159 161 161 162 165 165 165 171 174 175 176 176 176 176 177 176 176 175 174 176 177 175 173 171 169 172 176 174 171 168 170 169 169 168 164 164 164 168 168 162 162 159 157 157 153 147 146 148 144 139 137 139 139 144 150 150 145 140 137 129 118 116 119 123 126 127
135 119 131 209 210 217 198 202 218 230 271 299 311 349 46 274 191 124 90 65 55 74 49 42 53 44 59 89 119 139 154 158 162 163 166 171 171 171 172 177 180 177 176 176 175 176 178 178 177 176 176 178 178 175 173 173 176 177 176 173 171 174 173 172 172 170 171 171 174 174 167 165 164 164 164 159 151 151 153 151 145 140 141 141 145 152 151 146 142 141 134 122 119 122 128 131 133
184 127 147 236 223 241 237 219 233 239 265 302 298 330 31 268 241 80 112 110 57 102 130 99 114 150 136 134 130 148 163 163 168 169 174 180 179 179 176 178 178 174 175 175 173 176 178 178 176 175 176 179 180 176 173 175 177 177 178 176 174 177 177 177 178 176 177 177 179 178 171 166 167 169 169 164 155 156 159 158 154 147 146 146 148 155 156 151 146 144 138 129 122 124 130 133 134
196 147 181 237 205 242 254 216 237 252 245 265 285 329 349 255 233 96 123 101 351 217 199 178 170 171 162 164 159 167 173 170 174 176 184 187 186 187 182 172 167 171 172 170 172 173 173 174 173 173 175 180 182 178 174 177 178 178 180 178 178 180 180 181 181 182 182 182 183 182 176 169 168 170 172 168 159 163 167 164 164 159 153 151 152 158 161 156 150 146 140 135 124 122 128 130 131
184 208 198 221 187 236 262 214 228 247 215 240 289 334 324 257 88 127 135 129 234 216 200 192 174 170 169 168 168 177 181 179 180 184 191 193 193 189 180 161 158 169 168 165 169 170 170 170 171 174 178 183 185 182 178 180 181 181 183 182 182 182 181 183 184 185 185 185 186 185 179 173 170 172 173 171 168 172 173 171 170 168 160 154 155 162 165 160 152 148 142 138 128 121 124 127 129
207 277 241 233 228 241 272 255 254 348 353 286 278 322 312 355 72 157 149 167 229 229 180 174 172 171 165 162 169 181 186 188 190 191 192 192 193 189 184 172 162 165 165 163 163 162 165 170 178 182 184 185 186 186 181 181 183 185 187 185 186 186 183 185 188 189 188 189 190 189 183 177 174 175 173 173 179 182 180 177 175 175 169 159 157 164 169 164 155 149 144 140 132 124 124 127 131
194 257 279 256 237 238 264 282 293 320 300 274 287 326 303 306 321 150 147 249 280 284 158 152 160 162 155 165 181 190 192 195 199 198 197 196 194 188 183 177 166 164 162 162 164 160 167 182 191 191 188 187 188 188 183 182 186 188 189 188 190 190 188 189 191 192 191 192 193 192 187 183 180 178 176 177 185 190 187 184 181 181 177 168 162 165 172 169 158 151 147 143 137 129 126 129 134
189 223 255 267 243 244 267 282 288 289 269 270 323 308 282 277 307 77 25 296 42 112 135 136 147 155 164 182 190 199 202 206 207 201 202 206 198 182 179 176 167 167 164 164 169 171 180 190 195 196 193 190 190 190 186 184 188 190 191 191 192 193 194 195 194 194 193 194 195 194 192 190 188 184 181 182 189 193 192 189 189 186 183 178 170 168 174 173 163 154 150 147 143 134 130 132 136
210 207 231 259 270 271 285 283 277 274 262 269 332 279 276 287 280 339 333 260 116 115 130 138 148 161 178 192 196 201 207 212 210 202 205 210 198 182 182 179 172 173 172 170 175 180 186 191 195 199 199 196 193 191 189 188 190 192 195 195 195 197 200 200 199 196 195 197 198 197 199 199 197 194 189 189 193 194 194 193 194 193 190 186 179 174 175 176 169 158 153 152 150 142 137 138 139
199 189 227 243 268 289 292 280 280 285 257 181 189 253 289 342 283 247 297 175 125 119 134 150 156 169 183 194 203 204 213 217 211 199 202 210 201 188 185 184 181 178 173 173 180 185 189 193 196 198 200 199 197 195 192 191 192 195 198 197 198 201 204 204 203 200 198 200 203 201 203 206 205 204 199 198 198 198 196 194 197 197 196 193 186 180 178 178 173 164 159 158 156 151 150 151 149
172 160 255 267 290 303 257 265 274 248 254 195 179 239 322 21 70 219 234 180 141 131 143 162 165 177 188 194 203 207 221 223 217 207 207 214 205 189 187 189 187 184 182 182 186 189 192 197 198 198 200 201 201 200 196 193 194 197 201 201 202 205 206 206 204 204 203 202 205 205 205 207 208 209 206 204 203 202 200 198 200 199 199 198 191 186 183 182 178 174 170 166 165 161 159 165 166
161 148 254 293 346 327 254 260 253 172 213 185 154 247 305 273 211 259 242 171 145 136 150 167 171 186 191 195 205 212 225 227 225 222 222 220 207 193 194 197 195 192 192 191 190 191 195 200 200 200 201 202 204 205 201 197 196 199 204 203 203 205 206 208 205 205 208 205 205 207 208 209 210 211 209 209 207 205 204 204 207 204 201 199 194 190 187 188 187 184 181 178 178 176 169 170 175
249 115 148 301 2 335 274 297 234 163 167 157 139 241 277 260 259 267 235 161 143 137 158 169 176 193 194 201 206 213 221 221 228 228 229 226 214 204 202 204 201 196 195 194 193 193 197 200 201 201 202 204 207 209 207 202 200 202 205 203 203 207 206 209 208 208 210 207 206 209 211 211 213 213 212 211 208 206 205 204 206 203 197 197 195 191 190 193 194 194 191 187 188 188 180 177 182
239 83 61 1 44 280 298 317 149 151 160 132 123 249 266 262 254 249 212 169 155 151 172 173 179 194 195 206 205 212 218 220 234 236 236 232 225 217 208 208 203 199 198 196 196 197 200 202 202 203 203 206 209 211 211 208 207 205 205 204 204 208 208 207 208 210 210 204 206 210 212 214 216 215 215 214 209 202 198 196 194 190 188 191 192 191 191 193 195 198 195 190 191 189 185 184 187
45 125 305 349 163 259 306 310 155 166 236 86 110 221 278 288 267 263 223 188 173 164 179 177 184 195 194 207 207 207 216 229 241 243 241 237 232 226 215 211 206 203 202 199 199 201 205 206 205 204 204 208 211 212 212 213 213 208 207 207 206 208 207 205 207 211 209 203 207 212 213 217 218 217 218 216 209 200 194 191 188 185 187 189 189 190 190 191 193 195 195 195 194 188 185 186 185
3 115 207 262 158 263 308 306 285 221 196 19 79 166 267 326 324 327 339 203 202 181 188 186 188 194 196 205 205 202 212 232 245 243 240 237 234 232 223 217 213 210 209 204 202 203 208 209 206 205 207 210 212 211 212 213 213 210 209 209 208 208 207 205 207 209 208 204 208 211 213 217 218 219 220 218 211 202 196 194 192 191 195 196 195 194 193 193 194 193 193 197 200 192 186 183 178
325 37 144 200 169 178 280 289 317 27 81 350 8 157 233 303 359 348 358 317 254 217 205 200 198 199 205 208 202 200 205 225 237 235 234 234 237 238 232 226 223 220 216 212 210 208 210 210 208 208 210 212 211 211 213 213 211 209 210 212 210 209 209 209 207 208 209 208 211 211 212 216 218 218 220 219 214 208 205 202 201 201 204 203 201 198 195 194 195 196 193 194 201 199 190 183 174
183 171 125 148 4 231 262 264 274 21 47 52 5 279 270 350 356 345 348 343 272 242 258 225 215 208 209 215 211 208 208 227 235 234 235 236 239 243 239 234 231 228 223 218 215 213 212 211 209 210 212 211 210 211 212 210 210 207 208 211 212 211 211 211 209 211 214 215 217 215 213 214 217 219 219 219 216 213 213 210 209 211 214 211 206 202 197 195 195 196 197 194 195 197 190 181 172
163 164 133 134 94 252 254 257 254 283 71 182 199 231 9 22 3 355 349 358 32 324 332 300 216 214 221 227 219 223 223 235 252 259 252 243 241 244 242 238 236 234 228 221 218 215 213 211 211 213 215 212 209 210 210 207 206 205 205 206 208 212 213 212 212 215 217 220 222 219 216 214 215 217 218 219 218 217 217 216 215 218 221 217 208 202 198 196 195 195 198 197 189 182 177 174 171
134 120 107 114 100 277 265 264 274 259 111 264 171 92 42 28 12 4 352 16 32 9 357 14 28 215 262 274 265 268 252 254 283 291 268 252 247 247 248 246 242 238 231 226 222 218 216 214 213 215 216 216 213 210 207 206 205 203 204 204 205 210 211 209 210 215 217 221 224 221 219 218 216 217 217 216 217 219 220 220 220 221 222 219 211 204 200 198 197 195 194 194 188 176 166 168 172
111 120 108 83 166 257 263 251 297 335 114 317 74 82 42 15 20 14 16 33 27 6 8 14 9 30 9 295 270 279 274 283 315 334 328 298 268 265 268 267 260 251 241 233 228 223 222 220 218 220 222 221 218 214 210 210 212 210 208 208 208 210 210 208 211 215 216 221 224 221 220 221 221 220 218 216 217 220 222 223 223 223 221 214 206 202 203 200 196 195 191 187 187 179 172 171 171
100 118 116 91 232 270 288 279 325 12 92 65 80 83 36 345 1 23 31 38 27 11 28 27 16 21 9 324 267 254 257 294 352 21 17 13 337 296 280 284 282 271 260 253 245 235 233 236 241 258 263 248 229 220 218 218 221 222 219 217 214 212 212 214 218 220 222 223 223 221 218 221 224 223 218 217 218 220 224 226 224 224 220 212 206 201 201 202 197 197 195 189 183 173 172 176 175
95 121 127 209 260 16 290 291 340 12 56 108 106 91 41 348 352 24 28 24 24 27 40 40 33 30 12 350 344 315 270 318 27 42 41 51 40 15 330 309 304 316 335 342 350 16 22 10 339 290 278 267 247 229 224 224 229 231 230 230 226 221 218 219 219 222 227 228 223 220 218 218 224 224 220 217 218 219 224 228 224 221 220 217 215 206 198 201 201 198 196 193 185 171 166 177 180
159 160 140 176 223 186 218 282 343 4 40 110 113 79 24 4 11 15 4 4 29 32 38 39 32 30 27 23 22 15 3 15 45 55 59 61 54 50 45 40 35 26 17 5 6 8 320 284 254 248 250 252 249 236 226 224 229 231 230 232 232 224 221 219 206 204 220 227 224 221 219 218 222 222 219 218 218 218 222 227 226 222 223 221 219 212 203 203 204 201 197 195 194 187 178 179 183
228 219 177 178 177 189 237 318 21 36 40 160 105 79 9 339 19 17 349 13 36 33 35 35 27 26 29 30 29 26 26 30 40 43 46 48 48 52 53 55 61 62 65 75 142 177 258 265 255 247 243 245 252 244 232 228 228 228 226 226 224 214 213 218 208 201 213 221 220 220 220 219 221 222 219 218 219 218 219 224 226 224 225 224 220 214 210 207 206 205 202 200 200 201 193 182 183
209 230 191 177 153 160 232 253 79 81 196 211 93 111 155 321 16 10 340 24 41 37 34 29 25 27 30 31 29 31 31 31 36 35 34 37 41 49 55 58 70 97 122 155 161 143 157 272 267 257 247 243 247 244 237 232 228 228 228 228 228 222 219 226 227 223 221 217 214 218 220 220 222 222 219 219 220 218 218 221 225 226 225 225 222 218 214 211 210 208 206 206 205 204 199 188 184
218 227 172 160 157 168 193 177 166 217 231 329 30 106 121 28 6 337 314 21 40 37 31 25 27 30 31 32 31 32 33 30 36 38 33 33 37 43 50 54 67 105 139 173 179 154 146 223 250 250 248 243 242 243 237 232 229 229 227 229 239 242 241 240 236 234 229 220 214 218 219 218 219 221 220 220 218 215 217 219 222 227 227 226 224 223 222 216 211 209 207 209 208 206 206 200 191
229 201 154 154 158 166 160 141 151 347 36 293 327 48 93 308 294 320 318 30 41 33 28 26 31 33 32 33 31 31 31 30 33 34 33 32 33 33 35 36 35 44 137 220 241 257 196 217 234 242 247 243 241 241 237 235 234 229 220 225 241 250 258 259 249 239 232 221 215 218 218 213 215 221 221 218 214 211 215 218 219 223 228 230 228 225 225 221 213 209 208 209 209 209 210 208 201
210 146 109 97 93 92 100 113 125 45 54 237 286 22 95 259 301 333 341 44 42 29 28 30 36 39 36 32 29 27 27 28 29 27 26 25 23 23 27 31 28 24 9 316 305 317 324 302 273 264 265 257 247 244 241 239 235 230 223 226 236 241 249 256 254 244 236 223 217 218 217 215 217 220 217 215 213 212 215 219 219 218 221 226 229 227 225 221 216 213 212 211 211 213 214 212 211
142 116 82 65 53 46 56 57 91 78 351 257 269 28 104 137 291 330 40 57 51 40 39 38 40 42 39 33 28 25 23 23 23 23 22 19 16 15 17 21 21 21 19 10 346 325 318 316 305 296 291 279 264 251 244 240 236 238 238 235 240 238 235 239 240 235 232 225 220 219 221 224 223 219 215 213 213 213 215 218 219 218 217 216 218 222 223 219 215 215 215 213 212 216 219 217 215
105 110 103 92 30 21 34 357 48 102 242 270 298 19 90 106 241 95 86 83 76 68 57 49 46 43 39 34 29 24 23 21 20 21 18 15 14 13 13 14 15 16 13 11 6 347 331 328 324 316 311 302 283 260 250 252 251 250 246 242 247 245 236 232 237 237 231 226 222 220 221 220 218 219 220 217 214 214 215 217 218 219 218 215 214 219 225 221 216 217 216 215 216 219 221 219 215
90 108 120 118 62 36 59 311 64 156 226 278 333 2 75 85 100 90 92 90 80 74 66 56 51 48 41 33 27 25 23 21 21 20 15 13 11 8 8 10 13 15 12 9 7 2 353 344 339 334 332 327 300 269 260 261 259 258 257 255 256 257 250 241 244 247 241 234 226 221 218 212 208 215 220 220 219 218 218 218 219 219 217 215 214 218 226 225 219 219 218 218 220 221 220 219 218
134 135 143 141 121 116 156 248 201 218 235 302 340 13 87 127 87 79 83 84 79 76 71 63 55 49 42 31 25 24 22 21 20 18 16 13 9 6 5 7 10 11 10 9 9 8 4 356 347 341 339 338 320 288 272 270 268 268 273 273 269 267 265 260 258 257 252 245 237 230 225 215 209 215 220 221 222 221 221 221 221 222 218 214 215 218 222 225 223 220 220 220 220 222 221 220 221
162 155 136 148 154 141 170 192 167 182 197 333 348 36 126 211 95 75 88 88 81 77 73 69 60 48 41 32 25 25 23 19 15 14 15 12 8 7 6 6 6 7 7 7 8 9 8 3 356 348 342 338 333 325 311 301 296 289 287 288 279 267 260 261 266 267 263 257 251 245 239 226 216 221 226 226 227 225 224 225 223 222 218 215 218 219 218 221 223 220 219 221 221 222 222 220 222
185 139 105 156 184 137 129 171 161 154 128 10 355 80 175 269 3 78 102 90 77 73 62 60 57 46 40 31 24 25 23 20 16 12 10 7 6 7 8 6 4 4 4 5 6 7 6 4 3 0 355 345 338 338 335 321 309 296 287 283 278 269 257 250 254 265 269 267 258 250 247 232 215 222 231 230 234 234 230 229 224 219 218 216 217 219 219 221 222 219 218 221 222 222 221 219 220
129 128 152 209 173 117 115 154 80 93 114 39 318 150 125 20 303 128 118 96 77 70 53 46 46 42 37 27 22 22 19 19 17 13 8 4 4 4 4 4 3 3 1 1 5 7 7 6 7 8 8 1 347 336 330 323 314 301 291 284 279 275 270 260 258 262 266 267 263 258 259 248 222 222 228 226 229 233 235 237 231 221 217 216 215 215 218 223 224 221 220 221 221 222 222 219 221
126 163 184 171 88 92 106 122 35 50 113 237 303 153 153 154 243 179 134 109 87 77 62 46 32 33 32 22 18 17 16 18 14 12 9 4 2 1 360 358 359 1 0 1 4 7 10 12 11 10 9 6 358 346 334 325 320 310 300 294 289 287 285 278 275 276 273 269 268 266 266 262 251 241 234 230 224 221 227 235 237 232 222 215 215 214 213 218 223 222 221 222 221 222 221 221 222
129 156 152 113 118 132 87 124 139 109 121 205 40 128 187 179 223 222 167 134 109 93 73 55 35 31 29 17 13 11 12 15 11 10 6 1 0 358 358 355 355 1 4 4 6 9 12 14 13 11 8 6 5 1 354 344 334 323 311 303 301 302 298 292 287 282 277 273 269 264 255 251 255 255 247 240 229 217 217 220 228 240 235 219 214 217 214 214 218 222 222 222 223 223 222 221 221
57 98 84 51 132 153 151 143 146 136 142 151 117 151 236 206 229 244 156 133 121 108 82 64 43 34 31 20 15 9 9 11 6 6 2 358 358 356 357 355 354 1 5 5 8 10 12 11 11 11 8 7 8 7 3 359 350 338 326 317 311 308 302 297 292 282 273 271 269 265 259 256 255 252 246 240 229 221 220 216 216 231 238 226 216 218 219 214 214 220 222 223 223 223 223 221 217
75 97 112 50 70 114 133 95 77 119 140 145 135 184 231 226 302 95 98 102 112 111 96 79 51 38 35 25 22 15 10 9 4 2 359 356 355 354 355 354 356 1 4 5 6 8 9 9 9 9 7 6 9 9 8 5 358 349 341 334 326 315 302 289 282 277 270 268 269 266 263 261 254 246 241 236 229 224 224 222 217 220 229 228 219 216 215 214 215 219 221 222 222 221 221 219 215
142 134 154 147 122 120 115 97 357 89 124 154 152 176 202 29 28 94 109 106 104 105 102 89 58 40 37 26 25 21 13 10 4 360 358 355 355 354 352 354 358 2 3 4 4 4 6 6 7 8 7 8 11 12 10 8 4 357 347 343 335 318 299 282 276 278 272 268 270 269 262 257 252 247 242 235 230 224 221 220 219 219 221 223 220 215 212 214 217 217 217 217 218 218 218 217 214